Regional Weather Roundup
Issued by NWS

Home | Current Version | Previous Version | Text Only | Print | Product List | Glossary On
Versions: 1 2 3 4 5 6 7 8 9 10 11 12 13 14 15 16 17 18 19 20 21 22 23 24 25 26 27 28 29 30 31 32 33 34 35 36 37 38 39 40 41 42 43 44 45 46 47 48 49 50
000
ASUS44 KBMX 310210
RWRAL

ALABAMA REGIONAL WEATHER ROUNDUP
NATIONAL WEATHER SERVICE BIRMINGHAM AL
900 PM CDT MON MAY 30 2016

NOTE: "FAIR" INDICATES FEW OR NO CLOUDS BELOW 12,000 FEET
WITH NO SIGNIFICANT WEATHER AND/OR OBSTRUCTIONS TO VISIBILITY.

THE REMARK "TC" DENOTES TEMPERATURE IN DEGREES CELSIUS.

ALZ001>011-014-016>018-020-310300-
NORTH ALABAMA

CITY           SKY/WX    TMP DP  RH WIND       PRES   REMARKS
MUSCLE SHOALS  CLEAR     79  60  52 N5        29.97R
HUNTSVILLE     PTCLDY    82  58  43 N6        29.95R
DECATUR        CLEAR     74  63  68 N5        29.96R
HALEYVILLE     FAIR      73  64  73 CALM      29.99S
GADSDEN        CLEAR     74  67  78 CALM      29.95R
$$

ALZ012-013-022-023-030>036-040>044-310300-
WEST CENTRAL ALABAMA

CITY           SKY/WX    TMP DP  RH WIND       PRES   REMARKS
TUSCALOOSA     CLEAR     77  66  68 CALM      29.93R
$$

ALZ015-024>027-033>036-040>044-310300-
CENTRAL ALABAMA

CITY           SKY/WX    TMP DP  RH WIND       PRES   REMARKS
BIRMINGHAM     PTCLDY    80  65  59 CALM      29.97R
MONTGOMERY     CLEAR     77  68  73 W3        29.91F
SHELBY CO ARPT CLEAR     75  69  81 CALM      29.95R
MAXWELL AFB    CLEAR     75  73  95 W3        29.91S
GREENVILLE     FAIR      76  67  73 CALM      29.93R
$$

ALZ019-021-028-029-037-038-045>048-310300-
EAST CENTRAL ALABAMA

CITY           SKY/WX    TMP DP  RH WIND       PRES   REMARKS
ANNISTON       PTCLDY    75  63  66 S3        29.95S
ALEXANDER CITY CLEAR     75  72  90 CALM      29.95S
AUBURN         CLEAR    N/A N/A N/A NW3       29.96R
$$

ALZ051>064-310300-
SOUTHWEST ALABAMA

CITY           SKY/WX    TMP DP  RH WIND       PRES   REMARKS
MOBILE         PTCLDY    75  68  78 CALM      29.96R
BROOKLEY FIELD PTCLDY    80  70  71 CALM      29.95R
EVERGREEN      CLEAR     77  68  73 CALM      29.94R
$$

ALZ049-050-065>069-310300-
SOUTHEAST ALABAMA

CITY           SKY/WX    TMP DP  RH WIND       PRES   REMARKS
DOTHAN         CLEAR     77  64  64 SW9       29.97R
OZARK          CLEAR     77  66  68 SW6       29.93S
TROY           CLEAR     77  66  68 CALM      29.94R
EUFAULA        FAIR      74  67  78 CALM      29.92R
$$



USA.gov is the U.S. government's official web portal to all federal, state and local government web resources and services.